This demonstration page uses our WeatherBlox Daily Observations layout. Learn more.

Left ArrowRight Arrow

39.08367, -84.50855

Hourly Observations for January 15, 2018

Temp ( °F °C ) Dew Point ( °F °C ) Humidity (%) Winds ( mph kmh ) Pressure ( in mb ) Visibility ( mi km ) Precip ( " mm )
12:53 am 00:53 Cloudy 18 -7.8 9 -12.8 68 68 Calm 30.48 1032 10 16.0934 0 0
1:53 am 01:53 Cloudy with Light Snow 18 -7.8 10 -12.2 71 71 VRB 3 6 30.45 1031 4 6.43736 0 0.0254
2:20 am 02:20 Cloudy with Light Snow 18 -7.8 12 -11.1 77 77 SSE 6 9 30.45 1031 2 3.21868 0 0.0254
2:39 am 02:39 Cloudy with Light Snow 18 -7.8 12 -11.1 77 77 S 5 7 30.45 1031 4 6.43736 0 0.0254
2:53 am 02:53 Cloudy with Light Snow 18 -7.8 12 -11.1 77 77 SSE 5 7 30.44 1031 4 6.43736 0 0.0254
3:23 am 03:23 Cloudy with Light Snow 18 -7.8 13 -10.6 81 81 S 5 7 30.45 1031 1.75 2.816345 0 0.0254
3:53 am 03:53 Cloudy with Light Snow 18 -7.8 14 -10 84 84 SSW 5 7 30.42 1030 1.75 2.816345 0.01 0.254
3:57 am 03:57 Cloudy with Light Snow 18 -7.8 14 -10 84 84 S 3 6 30.45 1031 3 4.82802 0 0.0254
4:04 am 04:04 Cloudy with Light Snow 18 -7.8 14 -10 84 84 S 7 11 30.42 1030 1.75 2.816345 0 0.0254
4:26 am 04:26 Cloudy with Light Snow 18 -7.8 14 -10 84 84 SSE 5 7 30.42 1030 2.5 4.02335 0 0.0254
4:37 am 04:37 Cloudy with Light Snow 18 -7.8 14 -10 84 84 S 3 6 30.42 1030 1.5 2.41401 0 0.0254
4:53 am 04:53 Cloudy with Light Snow 18 -7.8 15 -9.4 88 88 S 3 6 30.4 1030 1.25 2.011675 0.01 0.254
5:13 am 05:13 Cloudy with Light Snow 18 -7.8 15 -9.4 88 88 S 3 6 30.42 1030 2 3.21868 0 0.0254
5:28 am 05:28 Cloudy with Light Snow 18 -7.8 15 -9.4 88 88 S 5 7 30.39 1029 2 3.21868 0 0.0254
5:37 am 05:37 Cloudy with Light Snow 18 -7.8 15 -9.4 88 88 S 6 9 30.39 1029 1.75 2.816345 0 0.0254
5:44 am 05:44 Cloudy with Light Snow 18 -7.8 15 -9.4 88 88 S 6 9 30.39 1029 2.5 4.02335 0 0.0254
5:51 am 05:51 Cloudy with Light Snow 18 -8 16 -9 93 93 S 6 9 30.39 1029 4 6.43736 0.01 0.254
5:53 am 05:53 Cloudy with Light Snow 18 -7.8 15 -9.4 88 88 S 5 7 30.39 1029 4 6.43736 0.01 0.254
6:53 am 06:53 Cloudy with Light Snow 19 -7.2 15 -9.4 84 84 S 6 9 30.39 1029 4 6.43736 0 0.0254
7:53 am 07:53 Cloudy 20 -6.7 16 -8.9 85 85 S 5 7 30.37 1029 9 14.48406 0 0.0254
8:53 am 08:53 Cloudy with Light Snow 21 -6.1 17 -8.3 85 85 S 5 7 30.37 1028 6 9.65604 0 0.0254
9:53 am 09:53 Cloudy 24 -4.4 18 -7.8 77 77 S 6 9 30.35 1028 10 16.0934 0 0.0254
10:53 am 10:53 Cloudy 26 -3.3 19 -7.2 75 75 SSW 8 13 30.35 1028 10 16.0934 0 0
11:26 am 11:26 Cloudy with Light Snow 26 -3.3 20 -6.7 78 78 S 8 13 30.36 1028 5 8.0467 0 0.0254
11:36 am 11:36 Cloudy with Light Snow 26 -3.3 20 -6.7 78 78 S 9 15 30.36 1028 2.5 4.02335 0 0.0254
11:53 am 11:53 Cloudy with Light Snow 27 -2.8 22 -5.6 81 81 S 6 9 30.34 1027 3 4.82802 0 0.0254
12:53 pm 12:53 Cloudy with Light Snow 28 -2.2 23 -5 81 81 S 6 9 30.28 1026 5 8.0467 0 0.0254
1:49 pm 13:49 Cloudy with Light Snow 30 -1 23 -5 75 75 SW 16 26 30.27 1025 1.75 2.816345 0 0.0254
1:53 pm 13:53 Cloudy with Light Snow 30 -1.1 23 -5 75 75 SSW 15 24 30.26 1025 2 3.21868 0 0.0254
2:08 pm 14:08 Cloudy with Light Snow 29 -1.7 24 -4.4 82 82 SW 10 17 30.27 1025 2 3.21868 0 0.0254
2:53 pm 14:53 Cloudy with Light Snow 30 -1.1 26 -3.3 85 85 SW 8 13 30.27 1025 1.25 2.011675 0 0.0254
3:53 pm 15:53 Cloudy with Light Snow 30 -1.1 27 -2.8 88 88 SSW 9 15 30.3 1026 1.5 2.41401 0.01 0.254
4:53 pm 16:53 Cloudy with Light Snow 30 -1.1 27 -2.8 88 88 SW 12 19 30.32 1027 1.5 2.41401 0 0.0254
5:33 pm 17:33 Cloudy with Light Snow 29 -1.7 26 -3.3 89 89 SW 10 17 30.36 1028 2 3.21868 0 0.0254
5:44 pm 17:44 Cloudy with Light Snow 30 -1.1 26 -3.3 85 85 SW 9 15 30.36 1028 4 6.43736 0 0.0254
5:53 pm 17:53 Cloudy with Light Snow 29 -1.7 26 -3.3 89 89 SW 7 11 30.33 1027 3 4.82802 0 0.0254
6:24 pm 18:24 Cloudy with Light Snow 29 -1.7 27 -2.8 92 92 SW 6 9 30.36 1028 1.75 2.816345 0.01 0.254
6:53 pm 18:53 Cloudy with Light Snow 29 -1.7 27 -2.8 92 92 SW 7 11 30.36 1028 1.75 2.816345 0.01 0.254
7:53 pm 19:53 Cloudy with Light Snow 28 -2.2 27 -2.8 96 96 SW 7 11 30.37 1028 3 4.82802 0.02 0.508
8:53 pm 20:53 Cloudy with Light Snow 29 -1.7 27 -2.8 92 92 SW 7 11 30.38 1029 2 3.21868 0 0.0254
9:02 pm 21:02 Cloudy with Light Snow 28 -2.2 27 -2.8 96 96 SSW 8 13 30.39 1029 2 3.21868 0 0.0254
9:53 pm 21:53 Cloudy with Light Snow 28 -2.2 27 -2.8 96 96 SSW 8 13 30.39 1029 1.75 2.816345 0 0.0254
10:33 pm 22:33 Cloudy with Light Snow 27 -2.8 25 -3.9 92 92 WNW 16 26 30.42 1030 0.75 1.207005 0.01 0.254
10:45 pm 22:45 Mostly Cloudy with Light Snow 24 -4.4 21 -6.1 88 88 WNW 15 24 30.42 1030 1 1.60934 0.01 0.254
10:53 pm 22:53 Cloudy with Light Snow 23 -5 19 -7.2 85 85 W 14 22 30.42 1030 1.25 2.011675 0.01 0.254
11:11 pm 23:11 Cloudy with Light Snow 22 -5.6 18 -7.8 85 85 WNW 12 19 30.45 1031 2 3.21868 0 0.0254
11:23 pm 23:23 Cloudy with Light Snow 21 -6.1 17 -8.3 85 85 W 14 22 30.45 1031 7 11.26538 0 0.0254
11:33 pm 23:33 Cloudy 20 -6.7 15 -9.4 81 81 NW 9 15 30.45 1031 9 14.48406 0 0.0254
11:53 pm 23:53 Cloudy 19 -7.2 13 -10.6 77 77 NW 9 15 30.45 1031 10 16.0934 0 0.0254

Powered by AerisWeather